Location: Garbet
(42.8837°N, 1.2115°E)
Time: 06:19:09
(UTC+00:00)

NOSS 2-3 (E) - Pass Details

Date: 13 December 2025
Orbit: 492 x 1706 km, 63.3° (Epoch: 24 April)

Event Time Altitude Azimuth Distance (km) Brightness Sun altitude
Rises 16:57:46 0° 211° (SSW) 2,660 7.9 -6.7°
Reaches altitude 10° 16:59:58 10° 210° (SSW) 1,716 6.8 -7.1°
Maximum altitude 17:03:39 76° 124° (SE) 511 3.1 -7.7°
Drops below altitude 10° 17:07:23 10° 39° (NE) 1,734 5.3 -8.3°
Enters shadow 17:07:43 - 39° (NE) 1,879 5.5 -8.4°
